Location: ??
(35.5052°N, 139.7262°E)
Time: 03:14:43
(UTC+00:00)

Cosmos 2237 Rocket - Pass Details

Date: 20 June 2021
Orbit: 835 x 850 km, 71.0° (Epoch: 26 July)

Event Time Altitude Azimuth Distance (km) Brightness Sun altitude
Exits shadow 12:12:56 23° 87° (E) 1,692 3.5 -21.2°
Drops below altitude 10° 12:16:27 10° 49° (NE) 2,448 4.7 -21.6°
Sets 12:19:18 0° 36° (NE) 3,387 5.6 -22.0°
